Location: South Cushing
(43.9686°N, 69.2945°W)
Time: 01:12:49
(UTC-04:00)

Tiangong 2 - Pass Details

Date: 22 July 2018
Orbit: 384 x 393 km, 42.8° (Epoch: 17 October)

Event Time Altitude Azimuth Distance (km) Brightness Sun altitude
Rises 21:12:25 0° 276° (W) 2,264 6.0 -9.8°
Reaches altitude 10° 21:14:40 10° 264° (W) 1,406 4.6 -10.1°
Maximum altitude 21:17:25 28° 204° (SSW) 761 2.4 -10.4°
Enters shadow 21:19:18 16° 153° (SSE) 1,105 2.8 -10.7°
